NOAA NWS Hourly Roundups by Site

Regional Weather Roundup for Baltimore MD/Washington, DC

To Select Another Site Choose from List

Select Site:  

266
ASUS41 KLWX 211511
RWRLWX

REGIONAL WEATHER ROUNDUP
NATIONAL WEATHER SERVICE BALTIMORE MD/WASHINGTON DC
1100 AM EDT THU MAR 21 2019

Note: "FAIR" indicates few or no clouds below 12,000 feet
with no significant weather and/or obstructions to visibility.
 TC=TEMPERATURE CELSIUS

 * =Non NWS site. Station does not report precipitation (e.g. rain,
    snow, etc.), thunder, or fog.

DCZ001-MDZ009-015-VAZ040>042-051-053>054-211600-
WASHINGTON METRO

CITY           SKY/WX    TMP DP  RH WIND       PRES   REMARKS
WASHINGTON NAT HVY RAIN  46  43  89 N9        29.95F FOG
DULLES         RAIN      42  40  92 N10       29.94F FOG
QUANTICO       LGT RAIN  46  45  96 NE10      29.92F
COLLEGE PARK*  CLOUDY    44  42  95 CALM      29.95S
LEESBURG*      CLOUDY    39  39 100 N6        29.97F WCI  35
MANASSAS*      RAIN      43  41  93 N13       29.92F
GAITHERSBURG*  RAIN      42  41  96 N3        29.96S FOG

$$

MDZ006>007-011-014-211600-
BALTIMORE METRO

CITY           SKY/WX    TMP DP  RH WIND       PRES   REMARKS
BWI AIRPORT    RAIN      46  45  96 N6        29.94F FOG
MD SCIENCE CTR   N/A     47  45  93 MISG      29.97F
MARTIN STATE   RAIN      48  48 100 CALM      29.97F
ANNAPOLIS      RAIN      51  47  86 N3        29.94F FOG

$$

MDZ012-015-019>023-211600-
MARYLAND EASTERN SHORE

CITY           SKY/WX    TMP DP  RH WIND       PRES   REMARKS
OCEAN CITY       N/A    N/A N/A N/A MISG      29.93F
SALISBURY      LGT RAIN  51  51 100 E8        29.91F FOG
BAY BRIDGE AP* RAIN      48 N/A N/A E5        29.94F FOG
CAMBRIDGE*     PTSUNNY   50  50 100 VRB3      29.92F FOG
EASTON*        RAIN      50  48  93 E7        29.98F

$$

MDZ017>025-211600-
SOUTHERN MARYLAND

CITY           SKY/WX    TMP DP  RH WIND       PRES   REMARKS
PATUXENT RIVER RAIN      51  51 100 NE8       29.89F FOG
ST INIGOES     LGT RAIN  50  50 100 NE8       29.88F
LEONARDTOWN*   CLOUDY    50  50 100 NE6       29.90F

$$

MDZ003>005-211600-
NORTH CENTRAL MARYLAND

CITY           SKY/WX    TMP DP  RH WIND       PRES   REMARKS
FREDERICK*     LGT RAIN  43  41  93 N8        30.01F
HAGERSTOWN APT RAIN      41  38  89 N9        29.96F FOG
WESTMINSTER*   RAIN      43  39  87 NE6       29.95F

$$

MDZ501>502-211600-
WESTERN MARYLAND

CITY           SKY/WX    TMP DP  RH WIND       PRES   REMARKS
OAKLAND*       FAIR      36  27  69 SE8       29.87F WCI  29
CUMBERLAND*    RAIN      40  29  66 CALM      30.01F

$$

VAZ025>031-211600-
SHENANDOAH VALLEY

CITY           SKY/WX    TMP DP  RH WIND       PRES   REMARKS
WINCHESTER*    RAIN      37  37 100 N3        29.97F
FRONT ROYAL*   CLOUDY    39  39 100 N7        29.95F WCI  34
LURAY*         RAIN      39  39 100 CALM      29.95F
NEW MARKET*    CLOUDY    38  37  97 CALM      29.95F
WAYNESBORO*    CLOUDY   N/A N/A N/A MISG        N/A

$$

WVZ021-048>050-054>055-211600-
EASTERN WEST VIRGINIA PANHANDLE

CITY           SKY/WX    TMP DP  RH WIND       PRES   REMARKS
MARTINSBURG    LGT RAIN  40  39  97 N7        29.95F FOG

$$

VAZ036>039-050-211600-
CENTRAL FOOTHILLS

CITY           SKY/WX    TMP DP  RH WIND       PRES   REMARKS
CHARLOTTESVILL HVY RAIN  44  41  89 N5        29.91F FOG
CULPEPER*      HVY RAIN  44  42  93 N7        29.93F
ORANGE*        RAIN      41  41 100 NW14G20   29.88F WCI  33
GORDONSVILLE*  CLOUDY    42  42 100 NE8       29.89F FOG
WARRENTON*     RAIN      44  41  90 N9        29.91F

$$

VAZ055>057-211600-
NORTH AND CENTRAL PIEDMONT

CITY           SKY/WX    TMP DP  RH WIND       PRES   REMARKS
FREDERICKSBRG* RAIN      45  45 100 N7        29.88F
STAFFORD*      RAIN      45  45 100 N12       29.92F

$$

NCZ024-NYZ072-PAZ021-071-VAZ022-071-211600-
OTHER REGIONAL OBSERVATIONS

CITY           SKY/WX    TMP DP  RH WIND       PRES   REMARKS
NEW YORK CITY  LGT RAIN  44  42  93 VRB3      30.12F FOG
PHILADELPHIA   LGT RAIN  47  45  93 E14       30.00F
PITTSBURGH     CLOUDY    46  28  49 E6        29.90S
ROANOKE        PTSUNNY   45  38  76 N9        29.91F
RICHMOND       LGT RAIN  53  51  93 NE12      29.79F
RALEIGH        LGT RAIN  46  45  96 N8        29.84R FOG

$$

ANZ530>537-211600-
MARINE OBSERVATIONS

STATION/POSITION TIME  TEMP    WIND        PRES
                       AIR SEA DIR/SP/G
                 (UTC) (F)     (DEG/KT/KT) (MB)
THOMAS PT LIGHT  1500   48 45   80/  7/  8 1014.5F
BALT KEY BRIDGE  1442   46      20/  6/  6 1014.3F
COVE POINT       1442   49     100/  4/  5 1013.8F
LEWISETTA        1442   49 49   70/ 10/ 12 1011.5F
SOLOMONS ISLAND  1442   49 46   60/  8/  9 1012.5F
PINEY POINT      1442           70/  6/  9   N/A

$$




 

View Past Reports for Baltimore MD/Washington, DC.

Products Courtesy of NOAA-NWS
NWS Information Parsing Script by Ken True at Saratoga Weather - Script by SE Lincoln Weather.